Regional Weather Roundup
Issued by NWS Grand Forks, ND

Home | Current Version | Previous Version | Graphics & Text | Print | Product List | Glossary On
Versions: 1 2 3 4 5 6 7 8 9 10 11 12 13 14 15 16 17 18 19 20 21 22 23 24 25 26 27 28 29 30 31 32 33 34 35 36 37 38 39 40 41 42 43 44 45 46 47 48 49 50
000
ASUS43 KFGF 250531
RWRFGF
PRAIRIE TO PINES  WEATHER ROUNDUP
NATIONAL WEATHER SERVICE EASTERN NORTH DAKOTA/GRAND FORKS ND
1100 PM CST WED DEC 24 2014

 **SATELLITE DATA USED TO AUGMENT SKY COVER AT AUTOMATED STATIONS**
 *****  WEATHER ACROSS EASTERN NORTH DAKOTA  *****

CITY           SKY/WX    TMP DP  RH WIND       PRES   REMARKS
GRAND FORKS    CLOUDY    30  27  88 S8        29.41F WCI  22
GRAND FRKS AFB CLOUDY    30  30  99 SW6       29.42R WCI  24
GRAND FRKS NWS   N/A     30 N/A N/A SW3         N/A
DEVILS LAKE    PTCLDY    25  19  80 W12       29.42R WCI  14
FARGO          CLOUDY    30  26  85 S13       29.47S WCI  20
WAHPETON ARPT  MOCLDY    30  27  86 S8        29.50R WCI  23
$$

 ***** WEATHER ACROSS CENTRAL AND WESTERN NORTH DAKOTA  *****

CITY           SKY/WX    TMP DP  RH WIND       PRES   REMARKS
BISMARCK       CLOUDY    31  29  92 NW3       29.47S
MINOT          CLEAR     28  22  78 W13       29.45R WCI  17
JAMESTOWN      MOCLDY    28  25  88 W6        29.43S WCI  22
MINOT AFB      PTCLDY    26  25  99 NW13      29.44S WCI  14
GARRISON         N/A     27  23  85 NW9       29.46R WCI  18
WILLISTON      PTCLDY    22  18  85 SW6       29.51R WCI  14
DICKINSON      CLOUDY    30  27  88 NW6       29.46S WCI  24
HETTINGER      CLOUDY    33  30  88 N8        29.48R
$$

 *****  OTHER AIRPORT OBSERVATIONS IN OUR AREA  *****

CITY           SKY/WX    TMP DP  RH WIND       PRES   REMARKS
WALHALLA         N/A     28  28 100 W6        29.41R WCI  22
GRAFTON AIRPOR NOT AVBL
VALLEY CITY AR FAIR      27  27 100 SW12      29.44R WCI  16
CANDO          FAIR      19  18  93 NW9       29.42R WCI   9
CAVALIER APRT  CLOUDY    28  27  93 W9        29.40R WCI  20
GWINNER        CLOUDY    30  30 100 CALM      29.49R
SHEYENNE NWR     N/A     29  27  94 SW8       29.95  WCI  21
ROLLA          CLOUDY    23  23 100 NW14      29.42R WCI  11
 ***** THE ABOVE OBSERVATIONS ARE NON NWS ARE NOT QUALITY
       CONTROLLED AND MAY MIS-REPORT RAIN FOR SNOW...
$$

  *****  WEATHER ACROSS NORTHERN MINNESOTA  *****

CITY           SKY/WX    TMP DP  RH WIND       PRES   REMARKS
FLAG ISLAND    CLOUDY    28  27  93 SW9       29.40S WCI  20
WARROAD        CLOUDY    28  25  86 SW9       29.41F WCI  20
ROSEAU         CLOUDY    28  25  86 S9        29.41S WCI  20
HALLOCK        CLOUDY    28  27  93 S9        29.40S FOG     WCI  20
THF RVR FALLS  CLOUDY    28  27  93 SW10      29.42S WCI  19
BAUDETTE       CLOUDY    30  26  85 SW8       29.41F WCI  22
WASKISH        CLOUDY    30  28  93 CALM      29.43S
CROOKSTON      CLOUDY    28  27  93 SW12      29.45R WCI  18
STEPHEN NDAWN    N/A     28  27  93 SW9         N/A  WCI  20
GREENBUSH NDAW   N/A     28  27  93 SW9         N/A  WCI  20
$$
  *****  WEATHER ACROSS CENTRAL AND WEST MINNESOTA  *****

CITY           SKY/WX    TMP DP  RH WIND       PRES   REMARKS
FOSSTON        CLOUDY    27  25  93 S15       29.43F WCI  15
BEMIDJI        CLOUDY    28  25  88 SW8       29.43F WCI  20
PARK RAPIDS    CLOUDY    28  26  92 S8        29.46S WCI  20
ELBOW LAKE     CLOUDY    28  27  96 S14       29.50S WCI  16
WADENA         CLOUDY    27  27 100 S9        29.47F WCI  17
DETROIT LAKES  PTCLDY    30  28  93 SW8       29.47S WCI  23
MOORHEAD       CLOUDY    30  30 100 S12       29.48S WCI  21
FERGUS FALLS   CLOUDY    28  27  93 S13       29.52S WCI  18
MORRIS MN      CLOUDY    28  27  93 S12       29.51S WCI  18
STAPLES        CLOUDY    28  27  93 S9        29.49F WCI  20
$$
  *****  WEATHER ELSEWHERE ACROSS MINNESOTA  *****

CITY           SKY/WX    TMP DP  RH WIND       PRES   REMARKS
DULUTH         CLOUDY    32  28  85 W14G20    29.47F WCI  22
INTRNTL FALLS  CLOUDY    31  29  92 SW6       29.42F
ELY            LGT SNOW  30  28  93 SW5       29.44S
CLOQUET        CLOUDY    32  28  86 SW8       29.49S WCI  25
WHEATON        CLOUDY    27  25  93 S9        29.52S WCI  17
BRAINERD       CLOUDY    30  27  88 SW12      29.52R WCI  20
HIBBING        CLOUDY    32  28  85 SW5       29.46S
ALEXANDRIA     CLOUDY    28  26  92 S10       29.51F WCI  19
SAINT CLOUD    CLOUDY    33  27  78 SW13      29.55S WCI  24
MINNEAPOLIS    CLOUDY    31  27  85 SW13      29.60R WCI  21
$$

  *****  WEATHER ACROSS SOUTH DAKOTA  *****

CITY           SKY/WX    TMP DP  RH WIND       PRES   REMARKS
SIOUX FALLS      N/A     26  24  92 S9        29.56F WCI  17
BROOKINGS      NOT AVBL
WATERTOWN      CLOUDY    25  23  92 S8        29.49F WCI  16
HURON          PTCLDY    25  23  92 S6        29.51R WCI  18
SISSETON         N/A     32  24  72 SE9       29.48R WCI  24
ABERDEEN       CLOUDY    28  25  88 S9        29.50S WCI  19
MITCHELL       PTCLDY    26  24  92 S9        29.52F WCI  17
PIERRE         CLOUDY    26  24  92 CALM      29.47S
MOBRIDGE       CLOUDY    29  25  85 E3        29.46S
RAPID CITY     CLOUDY    37  28  70 N10       29.40R
$$

  *****  SOME WEATHER IN NEARBY STATES *****

CITY           SKY/WX    TMP DP  RH WIND       PRES   REMARKS
GLASGOW MT     MOCLDY    27  22  81 N8        29.55R WCI  19
GREAT FALLS MT LGT SNOW  28  27  93 NE21G31   29.60R VSB 1   WCI  15
CHEYENNE WY    CLOUDY    34  19  54 W8        29.48F
SCOTTSBLUFF NE CLOUDY    33  26  75 SE5       29.47F
OMAHA NE       CLEAR     29  27  92 S13       29.70F WCI  19
DES MOINES IA  CLOUDY    32  27  81 W15       29.74S WCI  22
DAVENPORT IA   CLOUDY    34  28  79 W14       29.73R WCI  25
CHICAGO IL     CLOUDY    36  31  82 W16       29.61R
EAU CLAIRE WI  CLOUDY    33  28  81 SW6       29.58R
LA CROSSE WI   CLOUDY    36  29  75 SW7       29.63R
$$

  *****  SOME NATIONAL WEATHER *****

CITY           SKY/WX    TMP DP  RH WIND       PRES   REMARKS
LA GUARDIA NY  FOG       52  52 100 S3        29.54F VSB 3/4
RALEIGH NC     LGT RAIN  64  60  87 SW15      29.70R
ATLANTA GA     CLOUDY    46  41  81 W17       29.92R
NEW ORLEANS LA MOCLDY    48  35  60 W13       30.14R
OKLAHOMA CITY  CLEAR     31  23  72 S9        29.88F WCI  23
ALBUQUERQUE NM MOCLDY    34   9  35 S10       29.91F
SALT LAKE CITY CLOUDY    45  24  43 S18G28    29.39F
LOS ANGELES CA PTCLDY    61  57  88 SW6       29.86S
BOISE ID       CLOUDY    34  30  85 NW26G38   29.59R WCI  21
SEATTLE WA     PTCLDY    41  37  86 SE3       30.02R
$$

*** WEATHER ACROSS MANITOBA...SASKATCHEWAN AND ONTARIO ***
                ***ONTARIO***

CITY           SKY/WX    TMP DP  RH WIND       PRES   REMARKS
GERALDTON      LGT SNOW  23  21  93 NW3       29.39F
THUNDER BAY    CLOUDY    30  28  93 W3        29.46S
SIOUX LOOKOUT  LGT SNOW  30  30 100 SE2       29.41S
TORONTO        CLOUDY    43  37  81 SW29G44   29.21R
BIG TROUT LK   CLOUDY    23  23 100 VRB2      29.50F
PICKLE LAKE    NOT AVBL
DRYDEN         LGT SNOW  28  28 100 S5        29.39F WCI  23
KENORA         LGT SNOW  27  27 100 SW8       29.39S WCI  18
$$
                *** MANITOBA***

CITY           SKY/WX    TMP DP  RH WIND       PRES   REMARKS
BRANDON        CLOUDY    27  23  86 W13       29.42R WCI  16
DAUPHIN        FLURRIES  23  21  93 N12       29.40R WCI  12
ISLAND LAKE    FLURRIES  23  21  93 CALM      29.45F
PILOT MOUND      N/A     27  25  93 NW17G23     N/A  WCI  14
THE PAS        FLURRIES  21  21 100 NW9       29.49R WCI  11
THOMPSON       FLURRIES  16  14  93 N3        29.52S
WINNIPEG       CLOUDY    28  25  86 SW8       29.38R WCI  20
CHURCHILL      FLURRIES  18  16  93 SE8       29.63S WCI   7
GILLAM         LGT SNOW  18  16  93 NE3       29.56F
$$
                ***SASKATCHEWAN***

CITY           SKY/WX    TMP DP  RH WIND       PRES   REMARKS
ESTEVAN        CLOUDY    25  21  86 W6        29.47R WCI  18
KINDERSLEY     CLOUDY    23  21  93 NW18G25   29.62R WCI   9
LLOYDMINSTER   MOCLDY    14  10  85 N16G23    29.69R WCI  -2
PRINCE ALBERT  FLURRIES  25  21  86 NW10      29.56  WCI  15
REGINA         CLOUDY    27  25  93 NW20      29.50R WCI  13
YORKTON        CLOUDY    25  23  93 NW16      29.43R WCI  12
N. BATTLEFORD  MOCLDY    19  16  86 NW10G20   29.67R WCI   8
LA RONGE       LGT SNOW  18  16  93 NW12      29.63  WCI   5
SASKATOON      FLURRIES  23  21  93 NW9       29.59R WCI  13
SWIFT CURRENT  CLOUDY    25  21  86 NW20      29.56R WCI  11
$$
NOTE: THESE ARE AUTOMATED STATIONS WITH LIMITED QUALITY CONTROL
      "FAIR" INDICATES FEW OR NO CLOUDS BELOW 12,000 FEET WITH NO
      SIGNIFICANT WEATHER AND/OR OBSTRUCTIONS TO VISIBILITY.
      SKY/WX - SKY CONDITION AND SIGNIFICANT WEATHER.
      TMP - AIR TEMPERATURE.    DP   - DEWPOINT TEMPERATURE.
      RH  - RELATIVE HUMIDITY.  PRES - PRESSURE.
      HX  - HEAT INDEX.         WCI  - WIND CHILL INDEX.
$



USA.gov is the U.S. government's official web portal to all federal, state and local government web resources and services.